Date,TemperatureHighF,TemperatureAvgF,TemperatureLowF,DewpointHighF,DewpointAvgF,DewpointLowF,HumidityHigh,HumidityAvg,HumidityLow,PressureMaxIn,PressureMinIn,WindSpeedMaxMPH,WindSpeedAvgMPH,GustSpeedMaxMPH,PrecipitationSumIn
2014-1-26,33,18,4,26,12,-3,85,75,62,0.00,40.00,25,12,35,0.00
2014-1-27,26,5,-7,20,-4,-15,89,67,57,0.00,40.00,28,16,42,1.65
2014-1-28,5,-5,-13,-8,-14,-19,74,65,46,0.00,40.00,14,8,17,0.55
2014-1-29,17,6,-5,2,-4,-11,77,64,42,0.00,40.00,19,10,26,4.95
2014-1-30,28,18,4,24,8,-3,89,66,49,0.00,40.00,23,12,32,0.55
2014-1-31,35,30,26,29,24,17,94,78,55,0.00,40.00,12,6,17,0.00
2014-2-1,37,32,28,36,15,-100,97,85,95,0.00,40.00,9,6,12,2.20
2014-3-2,21,16,12,19,11,6,90,79,64,0.00,40.00,12,6,16,0.00
2014-3-3,16,6,-3,7,-6,-10,76,58,34,0.00,40.00,14,5,17,6.13
2014-3-4,21,12,-1,11,3,-8,77,66,54,0.00,40.00,7,3,9,0.00
2014-3-5,23,17,7,17,11,3,84,76,68,0.00,40.00,15,7,20,0.00
2014-3-6,27,19,13,16,11,8,82,71,61,0.00,40.00,13,7,16,4.99
2014-3-7,40,24,5,30,17,1,88,77,58,0.00,40.00,6,2,9,0.55
2014-3-8,38,34,31,32,30,27,93,84,72,0.00,40.00,7,4,11,1.65
2014-4-6,53,41,27,35,25,-100,90,59,38,0.00,40.00,11,3,14,0.00
2014-4-7,52,42,35,43,34,27,93,75,51,0.00,40.00,19,9,28,0.00
2014-4-8,59,48,39,40,37,34,93,68,44,0.00,40.00,12,9,16,0.00
2014-4-9,59,47,36,38,31,25,78,56,32,0.00,40.00,12,7,19,0.00
2014-4-10,71,56,41,49,40,35,86,58,33,0.00,40.00,29,13,41,0.55
2014-4-11,67,56,46,49,41,27,93,64,22,0.00,40.00,12,4,16,0.00
2014-4-12,75,61,42,52,43,35,79,55,34,0.00,40.00,21,12,30,0.00
2014-4-13,61,51,58,51,32,-100,77,74,64,0.00,40.00,4,2,4,0.00